Location: Ergnies
(50.0854°N, 2.0375°E)
Time: 08:33:10
(UTC+00:00)

Cosmos 614 Rocket - Pass Details

Date: 14 January 2026
Orbit: 728 x 758 km, 74.1° (Epoch: 17 February)

Event Time Altitude Azimuth Distance (km) Brightness Sun altitude
Exits shadow 05:44:33 34° 303° (WNW) 1,190 4.5 -18.7°
Maximum altitude 05:44:38 34° 305° (NW) 1,190 4.5 -18.7°
Drops below altitude 10° 05:49:14 10° 10° (N) 2,236 6.4 -18.0°
Sets 05:51:47 0° 20° (NNE) 3,162 7.3 -17.6°
